Torna al catalogo

FENGYUN 1C DEB

LostSSO
NORAD 38721·DEBRIS·🇨🇳 China

Lanciato May 10, 1999 da Taiyuan Satellite Launch Center

Loading…

Prossimi Passaggi (prossime 24 ore)

TLE

ObsoletoSource: Space-Track

Epoca: Sep 29, 2022, 11:28 UTC

1 38721U 99025ETN 22272.47813170  .00003465  00000-0  16294-2 0  9994
2 38721  98.8885   3.3775 0078445 134.1911 226.5746 14.19021798675385

Traccia FENGYUN 1C DEB in tempo reale con AllMySat

Download on the App Store